This is the latest recevied weather packets stored in our database for station/object OE-11061. If no packets are shown the sender has not sent any weather packets the latest 10 day(s).
| Time | Temp. | Humidity | Pressure | Rain* | Wind** | Luminosity | Snow |
|---|---|---|---|---|---|---|---|
| 1787726732 | 16.11° C | 96% | 1017.6 hPa | 0 mm | - | 179 W/m² | - |
| 1787726121 | 15.56° C | 96% | 1017.7 hPa | 0 mm | - | 164 W/m² | - |
| 1787725521 | 15.56° C | 97% | 1017.7 hPa | 0 mm | - | 209 W/m² | - |
| 1787724693 | 15° C | 96% | 1017.7 hPa | 0 mm | - | 90 W/m² | - |
| 1787724321 | 14.44° C | 96% | 1017.9 hPa | 0 mm | - | 75 W/m² | - |
| 1787723720 | 13.89° C | 97% | 1017.9 hPa | 0 mm | - | 75 W/m² | - |
| 1787722893 | 13.89° C | 96% | 1017.9 hPa | 0 mm | - | 60 W/m² | - |
| 1787722521 | 13.89° C | 96% | 1017.9 hPa | 0 mm | - | 52 W/m² | - |
| 1787721921 | 13.33° C | 96% | 1017.8 hPa | 0 mm | - | 37 W/m² | - |
| 1787721093 | 13.33° C | 96% | 1017.8 hPa | 0 mm | - | 45 W/m² | - |
| 1787720721 | 13.33° C | 96% | 1017.7 hPa | 0 mm | - | 37 W/m² | - |
| 1787720121 | 12.78° C | 97% | 1017.9 hPa | 0 mm | - | 22 W/m² | - |
| 1787719294 | 12.78° C | 97% | 1017.7 hPa | 0 mm | - | 7 W/m² | - |
| 1787718921 | 12.78° C | 96% | 1017.8 hPa | 0 mm | - | 0 W/m² | - |
| 1787718320 | 12.78° C | 97% | 1017.6 hPa | 0 mm | - | 0 W/m² | - |
| 1787717493 | 12.78° C | 96% | 1017.6 hPa | 0 mm | - | 0 W/m² | - |
| 1787717121 | 12.78° C | 96% | 1017.5 hPa | 0 mm | - | 0 W/m² | - |
| 1787716521 | 12.78° C | 96% | 1017.4 hPa | 0 mm | - | 0 W/m² | - |
| 1787715921 | 13.33° C | 96% | 1017.4 hPa | 0 mm | - | 0 W/m² | - |
| 1787715320 | 13.33° C | 96% | 1017.4 hPa | 0 mm | - | 0 W/m² | - |
| 1787714721 | 13.33° C | 96% | 1017.4 hPa | 0 mm | - | 0 W/m² | - |
| 1787713893 | 13.33° C | 96% | 1017.3 hPa | 0 mm | - | 0 W/m² | - |
| 1787713521 | 13.33° C | 96% | 1017.3 hPa | 0 mm | - | 0 W/m² | - |
| 1787712921 | 13.33° C | 97% | 1017.3 hPa | 0 mm | - | 0 W/m² | - |
| 1787712093 | 13.33° C | 97% | 1017.3 hPa | 0 mm | - | 0 W/m² | - |
* Rain latest hour (hover to see other rain measurements)
** Current wind speed in m/s (hover to see current wind gust speed)